Zurück zum Katalog

STARLINK-3111

AktivKommunikationVLEO
NORAD 49418·PAYLOAD·🇺🇸 United States

Gestartet Nov 13, 2021 von Cape Canaveral Space Force Station

Loading…

Nächste Überflüge (nächste 24 Stunden)

TLE

AktuellSource: CelesTrak SupGP

Epoche: Sep 14, 2026, 13:15 UTC

1 49418C 21104L   26257.55256944 -.00004187  00000+0 -12704-3 0  2571
2 49418  53.1571  89.6430 0001328 100.5205 139.6482 15.33555974    18

Verfolge STARLINK-3111 in Echtzeit mit AllMySat

Download on the App Store